Time,TemperatureF,DewpointF,PressureIn,WindDirection,WindDirectionDegrees,WindSpeedMPH,WindSpeedGustMPH,Humidity,HourlyPrecipIn,Conditions,Clouds,dailyrainin,SoftwareType,DateUTC
2013-02-06 00:01:00,30.0,20.0,-100.00,West,271,1.0,4.0,65,-99.99,,,-99.99,,2013-02-06 07:01:00,
2013-02-06 00:11:00,29.0,19.0,-100.00,West,262,1.0,3.0,66,-99.99,,,-99.99,,2013-02-06 07:11:00,
2013-02-06 00:21:00,29.0,19.0,-100.00,West,262,1.0,3.0,66,-99.99,,,-99.99,,2013-02-06 07:21:00,
2013-02-06 00:32:00,29.0,19.0,-100.00,West,262,1.0,3.0,66,-99.99,,,-99.99,,2013-02-06 07:32:00,
2013-02-06 00:41:00,28.0,19.0,-100.00,SSW,212,1.0,3.0,66,-99.99,,,-99.99,,2013-02-06 07:41:00,
2013-02-06 00:52:00,28.0,19.0,-100.00,SSW,212,1.0,3.0,66,-99.99,,,-99.99,,2013-02-06 07:52:00,
2013-02-06 01:01:00,28.0,18.0,-100.00,SW,221,2.0,4.0,67,-99.99,,,-99.99,,2013-02-06 08:01:00,
2013-02-06 01:11:00,28.0,18.0,-100.00,WSW,244,1.0,3.0,66,-99.99,,,-99.99,,2013-02-06 08:11:00,
2013-02-06 01:21:00,28.0,18.0,-100.00,WSW,244,1.0,3.0,66,-99.99,,,-99.99,,2013-02-06 08:21:00,
2013-02-06 01:31:00,28.0,18.0,-100.00,WSW,244,1.0,3.0,66,-99.99,,,-99.99,,2013-02-06 08:31:00,
2013-02-06 01:41:00,27.0,17.0,-100.00,WSW,249,2.0,4.0,66,-99.99,,,-99.99,,2013-02-06 08:41:00,
2013-02-06 01:53:00,27.0,17.0,-100.00,WSW,249,2.0,4.0,66,-99.99,,,-99.99,,2013-02-06 08:53:00,
2013-02-06 02:01:00,27.0,17.0,-100.00,SSW,207,2.0,5.0,65,-99.99,,,-99.99,,2013-02-06 09:01:00,
2013-02-06 02:11:00,27.0,17.0,-100.00,West,267,1.0,3.0,65,-99.99,,,-99.99,,2013-02-06 09:11:00,
2013-02-06 02:21:00,27.0,17.0,-100.00,West,267,1.0,3.0,65,-99.99,,,-99.99,,2013-02-06 09:21:00,
2013-02-06 02:31:00,27.0,17.0,-100.00,West,267,1.0,3.0,65,-99.99,,,-99.99,,2013-02-06 09:31:00,
2013-02-06 02:41:00,27.0,17.0,-100.00,WSW,239,2.0,5.0,65,-99.99,,,-99.99,,2013-02-06 09:41:00,
2013-02-06 02:52:00,27.0,17.0,-100.00,WSW,239,2.0,5.0,65,-99.99,,,-99.99,,2013-02-06 09:52:00,
2013-02-06 03:01:00,28.0,16.0,-100.00,West,278,2.0,5.0,61,-99.99,,,-99.99,,2013-02-06 10:01:00,
2013-02-06 03:11:00,29.0,17.0,-100.00,WSW,248,2.0,5.0,58,-99.99,,,-99.99,,2013-02-06 10:11:00,
2013-02-06 03:21:00,29.0,17.0,-100.00,WSW,248,2.0,5.0,58,-99.99,,,-99.99,,2013-02-06 10:21:00,
2013-02-06 03:31:00,29.0,17.0,-100.00,WSW,248,2.0,5.0,58,-99.99,,,-99.99,,2013-02-06 10:31:00,
2013-02-06 03:41:00,27.0,17.0,-100.00,WSW,252,2.0,4.0,63,-99.99,,,-99.99,,2013-02-06 10:41:00,
2013-02-06 03:52:00,27.0,17.0,-100.00,WSW,252,2.0,4.0,63,-99.99,,,-99.99,,2013-02-06 10:52:00,
2013-02-06 04:01:00,27.0,17.0,-100.00,SW,231,2.0,3.0,64,-99.99,,,-99.99,,2013-02-06 11:01:00,
2013-02-06 04:11:00,28.0,17.0,-100.00,WSW,237,2.0,4.0,64,-99.99,,,-99.99,,2013-02-06 11:11:00,
2013-02-06 04:22:00,28.0,17.0,-100.00,WSW,237,2.0,4.0,64,-99.99,,,-99.99,,2013-02-06 11:22:00,
2013-02-06 04:31:00,28.0,17.0,-100.00,WSW,237,2.0,4.0,64,-99.99,,,-99.99,,2013-02-06 11:31:00,
2013-02-06 04:42:00,29.0,17.0,-100.00,West,259,2.0,3.0,60,-99.99,,,-99.99,,2013-02-06 11:42:00,
2013-02-06 04:53:00,29.0,17.0,-100.00,West,259,2.0,3.0,60,-99.99,,,-99.99,,2013-02-06 11:53:00,
2013-02-06 05:01:00,30.0,17.0,-100.00,SW,225,2.0,4.0,59,-99.99,,,-99.99,,2013-02-06 12:01:00,
2013-02-06 05:12:00,31.0,16.0,-100.00,West,259,3.0,6.0,54,-99.99,,,-99.99,,2013-02-06 12:12:00,
2013-02-06 05:22:00,31.0,16.0,-100.00,West,259,3.0,6.0,54,-99.99,,,-99.99,,2013-02-06 12:22:00,
2013-02-06 05:32:00,31.0,16.0,-100.00,West,259,3.0,6.0,54,-99.99,,,-99.99,,2013-02-06 12:32:00,
2013-02-06 05:42:00,32.0,17.0,-100.00,SW,227,2.0,5.0,53,-99.99,,,-99.99,,2013-02-06 12:42:00,
2013-02-06 05:52:00,32.0,17.0,-100.00,SW,227,2.0,5.0,53,-99.99,,,-99.99,,2013-02-06 12:52:00,
2013-02-06 06:01:00,32.0,17.0,-100.00,SSW,208,1.0,4.0,54,-99.99,,,-99.99,,2013-02-06 13:01:00,
2013-02-06 06:11:00,33.0,17.0,-100.00,West,260,4.0,11.0,51,-99.99,,,-99.99,,2013-02-06 13:11:00,
2013-02-06 06:21:00,33.0,17.0,-100.00,West,260,4.0,11.0,51,-99.99,,,-99.99,,2013-02-06 13:21:00,
2013-02-06 06:31:00,33.0,17.0,-100.00,West,260,4.0,11.0,51,-99.99,,,-99.99,,2013-02-06 13:31:00,
2013-02-06 06:42:00,33.0,17.0,-100.00,WSW,250,6.0,13.0,51,-99.99,,,-99.99,,2013-02-06 13:42:00,
2013-02-06 06:52:00,33.0,17.0,-100.00,WSW,250,6.0,13.0,51,-99.99,,,-99.99,,2013-02-06 13:52:00,
2013-02-06 07:01:00,34.0,17.0,-100.00,WSW,255,5.0,13.0,48,-99.99,,,-99.99,,2013-02-06 14:01:00,
2013-02-06 07:11:00,34.0,17.0,-100.00,NW,304,5.0,10.0,48,-99.99,,,-99.99,,2013-02-06 14:11:00,
2013-02-06 07:21:00,34.0,17.0,-100.00,NW,304,5.0,10.0,48,-99.99,,,-99.99,,2013-02-06 14:21:00,
2013-02-06 07:31:00,34.0,17.0,-100.00,NW,304,5.0,10.0,48,-99.99,,,-99.99,,2013-02-06 14:31:00,
2013-02-06 07:41:00,34.0,16.0,-100.00,WNW,300,5.0,9.0,47,-99.99,,,-99.99,,2013-02-06 14:41:00,
2013-02-06 07:52:00,34.0,16.0,-100.00,WNW,300,5.0,9.0,47,-99.99,,,-99.99,,2013-02-06 14:52:00,
2013-02-06 08:01:00,35.0,15.0,-100.00,WNW,296,2.0,5.0,43,-99.99,,,-99.99,,2013-02-06 15:01:00,
2013-02-06 08:11:00,35.0,16.0,-100.00,West,278,2.0,4.0,46,-99.99,,,-99.99,,2013-02-06 15:11:00,
2013-02-06 08:21:00,35.0,16.0,-100.00,West,278,2.0,4.0,46,-99.99,,,-99.99,,2013-02-06 15:21:00,
2013-02-06 08:31:00,35.0,16.0,-100.00,West,278,2.0,4.0,46,-99.99,,,-99.99,,2013-02-06 15:31:00,
2013-02-06 08:41:00,32.0,19.0,-100.00,SW,236,3.0,5.0,60,-99.99,,,-99.99,,2013-02-06 15:41:00,
2013-02-06 08:52:00,32.0,19.0,-100.00,SW,236,3.0,5.0,60,-99.99,,,-99.99,,2013-02-06 15:52:00,
2013-02-06 09:01:00,31.0,19.0,-100.00,West,264,3.0,4.0,60,-99.99,,,-99.99,,2013-02-06 16:01:00,
2013-02-06 09:11:00,32.0,19.0,-100.00,WSW,253,4.0,5.0,58,-99.99,,,-99.99,,2013-02-06 16:11:00,
2013-02-06 09:21:00,32.0,19.0,-100.00,WSW,253,4.0,5.0,58,-99.99,,,-99.99,,2013-02-06 16:21:00,
2013-02-06 09:32:00,32.0,19.0,-100.00,WSW,253,4.0,5.0,58,-99.99,,,-99.99,,2013-02-06 16:32:00,
2013-02-06 09:41:00,33.0,19.0,-100.00,WSW,257,2.0,5.0,58,-99.99,,,-99.99,,2013-02-06 16:41:00,
2013-02-06 09:52:00,35.0,20.0,-100.00,SW,233,0.0,2.0,54,-99.99,,,-99.99,,2013-02-06 16:52:00,
2013-02-06 10:01:00,35.0,20.0,-100.00,SW,233,0.0,2.0,54,-99.99,,,-99.99,,2013-02-06 17:01:00,
2013-02-06 10:11:00,37.0,19.0,-100.00,NW,317,1.0,3.0,47,-99.99,,,-99.99,,2013-02-06 17:11:00,
2013-02-06 10:21:00,37.0,19.0,-100.00,NW,317,1.0,3.0,47,-99.99,,,-99.99,,2013-02-06 17:21:00,
2013-02-06 10:32:00,37.0,19.0,-100.00,NW,317,1.0,3.0,47,-99.99,,,-99.99,,2013-02-06 17:32:00,
2013-02-06 10:41:00,36.0,20.0,-100.00,WSW,258,9.0,14.0,52,-99.99,,,-99.99,,2013-02-06 17:41:00,
2013-02-06 10:52:00,36.0,20.0,-100.00,WSW,258,9.0,14.0,52,-99.99,,,-99.99,,2013-02-06 17:52:00,
2013-02-06 11:01:00,36.0,19.0,-100.00,WSW,256,10.0,13.0,49,-99.99,,,-99.99,,2013-02-06 18:01:00,
2013-02-06 11:11:00,35.0,19.0,-100.00,West,259,8.0,13.0,50,-99.99,,,-99.99,,2013-02-06 18:11:00,
2013-02-06 11:22:00,35.0,19.0,-100.00,West,259,8.0,13.0,50,-99.99,,,-99.99,,2013-02-06 18:22:00,
2013-02-06 11:32:00,35.0,19.0,-100.00,West,259,8.0,13.0,50,-99.99,,,-99.99,,2013-02-06 18:32:00,
2013-02-06 11:41:00,37.0,18.0,-100.00,WSW,256,8.0,13.0,47,-99.99,,,-99.99,,2013-02-06 18:41:00,
2013-02-06 11:52:00,37.0,18.0,-100.00,WSW,256,8.0,13.0,47,-99.99,,,-99.99,,2013-02-06 18:52:00,
2013-02-06 12:01:00,37.0,18.0,-100.00,WSW,248,10.0,15.0,45,-99.99,,,-99.99,,2013-02-06 19:01:00,
2013-02-06 12:11:00,38.0,19.0,-100.00,WSW,242,10.0,14.0,45,-99.99,,,-99.99,,2013-02-06 19:11:00,
2013-02-06 12:21:00,38.0,19.0,-100.00,WSW,242,10.0,14.0,45,-99.99,,,-99.99,,2013-02-06 19:21:00,
2013-02-06 12:31:00,38.0,19.0,-100.00,WSW,242,10.0,14.0,45,-99.99,,,-99.99,,2013-02-06 19:31:00,
2013-02-06 12:41:00,37.0,19.0,-100.00,West,259,9.0,15.0,47,-99.99,,,-99.99,,2013-02-06 19:41:00,
2013-02-06 12:52:00,37.0,19.0,-100.00,West,259,9.0,15.0,47,-99.99,,,-99.99,,2013-02-06 19:52:00,
2013-02-06 13:01:00,37.0,18.0,-100.00,West,261,10.0,15.0,46,-99.99,,,-99.99,,2013-02-06 20:01:00,
2013-02-06 13:11:00,37.0,18.0,-100.00,West,264,10.0,18.0,44,-99.99,,,-99.99,,2013-02-06 20:11:00,
2013-02-06 13:21:00,37.0,18.0,-100.00,West,264,10.0,18.0,44,-99.99,,,-99.99,,2013-02-06 20:21:00,
2013-02-06 13:31:00,37.0,18.0,-100.00,West,264,10.0,18.0,44,-99.99,,,-99.99,,2013-02-06 20:31:00,
2013-02-06 13:41:00,37.0,18.0,-100.00,West,259,11.0,17.0,46,-99.99,,,-99.99,,2013-02-06 20:41:00,
2013-02-06 13:52:00,37.0,18.0,-100.00,West,259,11.0,17.0,46,-99.99,,,-99.99,,2013-02-06 20:52:00,
2013-02-06 14:01:00,36.0,19.0,-100.00,West,273,11.0,18.0,48,-99.99,,,-99.99,,2013-02-06 21:01:00,
2013-02-06 14:11:00,36.0,18.0,-100.00,WSW,250,10.0,17.0,46,-99.99,,,-99.99,,2013-02-06 21:11:00,
2013-02-06 14:21:00,36.0,18.0,-100.00,WSW,250,10.0,17.0,46,-99.99,,,-99.99,,2013-02-06 21:21:00,
2013-02-06 14:31:00,36.0,18.0,-100.00,WSW,250,10.0,17.0,46,-99.99,,,-99.99,,2013-02-06 21:31:00,
2013-02-06 14:41:00,36.0,18.0,-100.00,WSW,246,11.0,17.0,47,-99.99,,,-99.99,,2013-02-06 21:41:00,
2013-02-06 14:52:00,36.0,18.0,-100.00,WSW,246,11.0,17.0,47,-99.99,,,-99.99,,2013-02-06 21:52:00,
2013-02-06 15:01:00,36.0,18.0,-100.00,WSW,252,10.0,15.0,48,-99.99,,,-99.99,,2013-02-06 22:01:00,
2013-02-06 15:11:00,36.0,18.0,-100.00,WSW,252,11.0,17.0,47,-99.99,,,-99.99,,2013-02-06 22:11:00,
2013-02-06 15:21:00,36.0,18.0,-100.00,WSW,252,11.0,17.0,47,-99.99,,,-99.99,,2013-02-06 22:21:00,
2013-02-06 15:31:00,36.0,18.0,-100.00,WSW,252,11.0,17.0,47,-99.99,,,-99.99,,2013-02-06 22:31:00,
2013-02-06 15:41:00,35.0,19.0,-100.00,WSW,251,12.0,19.0,52,-99.99,,,-99.99,,2013-02-06 22:41:00,
2013-02-06 15:52:00,35.0,19.0,-100.00,WSW,251,12.0,19.0,52,-99.99,,,-99.99,,2013-02-06 22:52:00,
2013-02-06 16:01:00,35.0,20.0,-100.00,West,259,12.0,18.0,53,-99.99,,,-99.99,,2013-02-06 23:01:00,
2013-02-06 16:11:00,35.0,19.0,-100.00,West,259,12.0,20.0,53,-99.99,,,-99.99,,2013-02-06 23:11:00,
2013-02-06 16:21:00,35.0,19.0,-100.00,West,259,12.0,20.0,53,-99.99,,,-99.99,,2013-02-06 23:21:00,
2013-02-06 16:31:00,35.0,19.0,-100.00,West,259,12.0,20.0,53,-99.99,,,-99.99,,2013-02-06 23:31:00,
2013-02-06 16:41:00,34.0,19.0,-100.00,WSW,251,11.0,17.0,55,-99.99,,,-99.99,,2013-02-06 23:41:00,
2013-02-06 16:52:00,34.0,19.0,-100.00,WSW,251,11.0,17.0,55,-99.99,,,-99.99,,2013-02-06 23:52:00,
2013-02-06 17:01:00,34.0,19.0,-100.00,West,260,10.0,18.0,54,-99.99,,,-99.99,,2013-02-07 00:01:00,
2013-02-06 17:11:00,34.0,19.0,-100.00,West,265,8.0,14.0,53,-99.99,,,-99.99,,2013-02-07 00:11:00,
2013-02-06 17:21:00,34.0,19.0,-100.00,West,265,8.0,14.0,53,-99.99,,,-99.99,,2013-02-07 00:21:00,
2013-02-06 17:31:00,34.0,19.0,-100.00,West,265,8.0,14.0,53,-99.99,,,-99.99,,2013-02-07 00:31:00,
2013-02-06 17:41:00,32.0,18.0,-100.00,WSW,244,7.0,12.0,55,-99.99,,,-99.99,,2013-02-07 00:41:00,
2013-02-06 17:52:00,32.0,18.0,-100.00,WSW,244,7.0,12.0,55,-99.99,,,-99.99,,2013-02-07 00:52:00,
2013-02-06 18:01:00,31.0,18.0,-100.00,SW,236,6.0,12.0,58,-99.99,,,-99.99,,2013-02-07 01:01:00,
2013-02-06 18:11:00,30.0,18.0,-100.00,SW,236,6.0,10.0,59,-99.99,,,-99.99,,2013-02-07 01:11:00,
2013-02-06 18:21:00,30.0,18.0,-100.00,SW,236,6.0,10.0,59,-99.99,,,-99.99,,2013-02-07 01:21:00,
2013-02-06 18:30:00,28.0,17.0,-100.00,WSW,258,3.0,6.0,63,-99.99,,,-99.99,,2013-02-07 01:30:00,
2013-02-06 18:31:00,30.0,18.0,-100.00,SW,236,6.0,10.0,59,-99.99,,,-99.99,,2013-02-07 01:31:00,
2013-02-06 18:41:00,29.0,18.0,-100.00,SW,231,2.0,5.0,63,-99.99,,,-99.99,,2013-02-07 01:41:00,
2013-02-06 18:52:00,28.0,17.0,-100.00,WSW,258,3.0,6.0,63,-99.99,,,-99.99,,2013-02-07 01:52:00,
2013-02-06 19:01:00,28.0,17.0,-100.00,WSW,258,3.0,6.0,63,-99.99,,,-99.99,,2013-02-07 02:01:00,
2013-02-06 19:11:00,28.0,17.0,-100.00,WSW,258,3.0,6.0,63,-99.99,,,-99.99,,2013-02-07 02:11:00,
2013-02-06 19:21:00,28.0,17.0,-100.00,WSW,258,3.0,6.0,63,-99.99,,,-99.99,,2013-02-07 02:21:00,
2013-02-06 20:02:00,26.0,17.0,-100.00,WSW,248,3.0,4.0,67,-99.99,,,-99.99,,2013-02-07 03:02:00,
2013-02-06 20:11:00,25.0,17.0,-100.00,WSW,251,3.0,4.0,70,-99.99,,,-99.99,,2013-02-07 03:11:00,
2013-02-06 20:21:00,25.0,17.0,-100.00,WSW,251,3.0,4.0,70,-99.99,,,-99.99,,2013-02-07 03:21:00,
2013-02-06 20:31:00,25.0,17.0,-100.00,WSW,251,3.0,4.0,70,-99.99,,,-99.99,,2013-02-07 03:31:00,
2013-02-06 20:41:00,23.0,16.0,-100.00,West,272,2.0,5.0,73,-99.99,,,-99.99,,2013-02-07 03:41:00,
2013-02-06 20:52:00,23.0,16.0,-100.00,West,272,2.0,5.0,73,-99.99,,,-99.99,,2013-02-07 03:52:00,
2013-02-06 21:01:00,21.0,15.0,-100.00,WSW,256,3.0,5.0,75,-99.99,,,-99.99,,2013-02-07 04:01:00,
2013-02-06 21:11:00,22.0,15.0,-100.00,West,269,5.0,8.0,75,-99.99,,,-99.99,,2013-02-07 04:11:00,
2013-02-06 21:22:00,22.0,15.0,-100.00,West,269,5.0,8.0,75,-99.99,,,-99.99,,2013-02-07 04:22:00,
2013-02-06 21:31:00,22.0,15.0,-100.00,West,269,5.0,8.0,75,-99.99,,,-99.99,,2013-02-07 04:31:00,
2013-02-06 21:41:00,20.0,13.0,-100.00,WSW,239,2.0,4.0,73,-99.99,,,-99.99,,2013-02-07 04:41:00,
2013-02-06 21:53:00,20.0,13.0,-100.00,WSW,239,2.0,4.0,73,-99.99,,,-99.99,,2013-02-07 04:53:00,
2013-02-06 22:01:00,19.0,13.0,-100.00,WSW,241,4.0,7.0,74,-99.99,,,-99.99,,2013-02-07 05:01:00,
2013-02-06 22:11:00,19.0,13.0,-100.00,SW,226,3.0,5.0,75,-99.99,,,-99.99,,2013-02-07 05:11:00,
2013-02-06 22:21:00,19.0,13.0,-100.00,SW,226,3.0,5.0,75,-99.99,,,-99.99,,2013-02-07 05:21:00,
2013-02-06 22:32:00,19.0,13.0,-100.00,SW,226,3.0,5.0,75,-99.99,,,-99.99,,2013-02-07 05:32:00,
2013-02-06 22:42:00,18.0,12.0,-100.00,SW,235,2.0,4.0,75,-99.99,,,-99.99,,2013-02-07 05:42:00,
2013-02-06 22:52:00,18.0,12.0,-100.00,SW,235,2.0,4.0,75,-99.99,,,-99.99,,2013-02-07 05:52:00,
2013-02-06 23:02:00,17.0,10.0,-100.00,SW,236,3.0,4.0,75,-99.99,,,-99.99,,2013-02-07 06:02:00,
2013-02-06 23:11:00,16.0,10.0,-100.00,WSW,240,4.0,5.0,76,-99.99,,,-99.99,,2013-02-07 06:11:00,
2013-02-06 23:22:00,16.0,10.0,-100.00,WSW,240,4.0,5.0,76,-99.99,,,-99.99,,2013-02-07 06:22:00,
2013-02-06 23:31:00,16.0,10.0,-100.00,WSW,240,4.0,5.0,76,-99.99,,,-99.99,,2013-02-07 06:31:00,
2013-02-06 23:43:00,16.0,10.0,-100.00,WSW,237,2.0,4.0,76,-99.99,,,-99.99,,2013-02-07 06:43:00,
2013-02-06 23:52:00,16.0,10.0,-100.00,WSW,237,2.0,4.0,76,-99.99,,,-99.99,,2013-02-07 06:52:00,